Location: Pic du Midi - T1M
(42.9366°N, 0.1426°E)
Time: 14:23:21
(UTC+01:00)

ZACube-1 - Visible Passes

Search period start: 24 September 2021 00:00
Search period end: 04 October 2021 00:00
Orbit: 583 x 665 km, 97.6° (Epoch: 24 September)

Date Brightness Start Highest point End Pass type
(mag) Time Alt. Az. Time Alt. Az. Time Alt. Az.
24 Sep ? 04:31:45 10° NE 04:34:36 17° E 04:37:23 10° SE visible
24 Sep ? 06:07:00 10° N 06:11:02 41° WNW 06:14:58 10° SW visible
25 Sep ? 04:49:41 10° NE 04:53:19 27° E 04:56:52 10° SSE visible
26 Sep ? 05:07:56 10° NNE 05:12:00 42° E 05:15:57 10° S visible
27 Sep ? 05:26:22 10° NNE 05:30:37 70° ESE 05:34:44 10° S visible
28 Sep ? 05:44:57 10° N 05:49:11 72° WNW 05:53:18 10° SSW visible
29 Sep ? 04:28:37 10° NE 04:31:12 16° E 04:33:46 10° SE visible
29 Sep ? 06:03:40 10° N 06:07:41 43° WNW 06:11:37 10° SW visible
30 Sep ? 04:46:27 10° NE 04:49:56 25° E 04:53:21 10° SSE visible
30 Sep ? 06:22:32 10° N 06:26:08 28° WNW 06:29:40 10° SW visible
01 Oct ? 05:04:39 10° NNE 05:08:37 39° E 05:12:29 10° SSE visible
02 Oct ? 05:23:03 10° NNE 05:27:14 65° E 05:31:19 10° S visible
03 Oct ? 05:41:36 10° N 05:45:48 77° WNW 05:49:54 10° SSW visible
